This is the latest recevied weather packets stored in our database for station/object JE4YKI-13. If no packets are shown the sender has not sent any weather packets the latest 10 day(s).
| Time | Temp. | Humidity | Pressure | Rain* | Wind** | Luminosity | Snow |
|---|---|---|---|---|---|---|---|
| 1777940979 | 15.56° C | 66% | 1020.3 hPa | 0 mm | - | - | - |
| 1777940379 | 15.56° C | 68% | 1020.3 hPa | 0 mm | - | - | - |
| 1777939778 | 15.56° C | 67% | 1020.2 hPa | 0 mm | - | - | - |
| 1777939178 | 15.56° C | 69% | 1020.3 hPa | 0 mm | - | - | - |
| 1777938577 | 14.44° C | 70% | 1020.3 hPa | 0 mm | - | - | - |
| 1777937977 | 14.44° C | 71% | 1020.3 hPa | 0 mm | - | - | - |
| 1777937376 | 14.44° C | 71% | 1020.5 hPa | 0 mm | - | - | - |
| 1777936776 | 14.44° C | 69% | 1020.4 hPa | 0 mm | - | - | - |
| 1777936176 | 14.44° C | 70% | 1020.4 hPa | 0 mm | - | - | - |
| 1777935576 | 13.89° C | 71% | 1020.3 hPa | 0 mm | - | - | - |
| 1777934975 | 13.89° C | 72% | 1020.3 hPa | 0 mm | - | - | - |
| 1777934375 | 13.33° C | 72% | 1020.4 hPa | 0 mm | - | - | - |
| 1777933774 | 13.33° C | 73% | 1020.3 hPa | 0 mm | - | - | - |
| 1777933174 | 13.33° C | 76% | 1020.3 hPa | 0 mm | - | - | - |
| 1777932572 | 12.22° C | 78% | 1020.3 hPa | 0 mm | - | - | - |
| 1777931972 | 12.22° C | 80% | 1020.3 hPa | 0 mm | - | - | - |
| 1777931371 | 11.67° C | 80% | 1020.1 hPa | 0 mm | - | - | - |
| 1777930771 | 11.11° C | 83% | 1020 hPa | 0 mm | - | - | - |
| 1777930171 | 10.56° C | 83% | 1019.9 hPa | 0 mm | - | - | - |
| 1777929570 | 10.56° C | 85% | 1019.7 hPa | 0 mm | - | - | - |
| 1777928970 | 10° C | 85% | 1019.7 hPa | 0 mm | - | - | - |
| 1777928370 | 9.44° C | 87% | 1019.6 hPa | 0 mm | - | - | - |
| 1777927770 | 9.44° C | 90% | 1019.5 hPa | 0 mm | - | - | - |
| 1777927169 | 8.89° C | 92% | 1019.5 hPa | 0 mm | - | - | - |
| 1777926569 | 8.33° C | 92% | 1019.4 hPa | 0 mm | - | - | - |
* Rain latest hour (hover to see other rain measurements)
** Current wind speed in m/s (hover to see current wind gust speed)